Regional Weather Roundup
Issued by NWS

Home | Current Version | Previous Version | Graphics & Text | Print | Product List | Glossary On
Versions: 1 2 3 4 5 6 7 8 9 10 11 12 13 14 15 16 17 18 19 20 21 22 23 24 25 26 27
000
ASUS45 KBOU 221807
RWRCO

WEATHER ROUNDUP FOR COLORADO
NATIONAL WEATHER SERVICE DENVER/BOULDER CO
1200 PM MDT TUE AUG 22 2017

NOTE: "FAIR" INDICATES FEW OR NO CLOUDS BELOW 12000 FEET WITH NO
SIGNIFICANT WEATHER AND/OR OBSTRUCTIONS TO VISIBILITY.

COZ001>005-013-030-031-221900-
...NORTHWEST COLORADO...

CITY           SKY/WX    TMP DP  RH WIND       PRES   REMARKS
CRAIG          FAIR      83  35  18 W9        30.33F
HAYDEN         FAIR      77  38  24 NW6       30.37F
MEEKER         FAIR      81  39  22 NW5       30.33F
RABBIT EARS PA FAIR      63  32  31 W5        30.66S
STEAMBOAT SPGS NOT AVBL
WALDEN         FAIR      75  30  19 SW5       30.48S
$$

COZ006>008-011-221900-
...WEST CENTRAL VALLEYS...

CITY           SKY/WX    TMP DP  RH WIND       PRES   REMARKS
GRAND JUNCTION FAIR      80  45  28 SE10      30.26F
MONTROSE       FAIR      78  44  29 CALM      30.34F
EAGLE          FAIR      76  40  27 CALM      30.38F
RIFLE          FAIR      81  40  23 NW7       30.28F
DELTA          FAIR      80  44  27 CALM      30.30F
NUCLA          FAIR      79  41  25 N7        30.38F
$$

COZ017>023-064>068-221900-
...SOUTHWEST COLORADO...

CITY           SKY/WX    TMP DP  RH WIND       PRES   REMARKS
DURANGO        FAIR      76  42  29 SE10G17   30.40F
CORTEZ         CLOUDY    74  52  46 VRB3      30.37S
PAGOSA SPRINGS FAIR      72  39  29 S5        30.48F
TELLURIDE      CLOUDY    66  38  36 SW3       30.57S
WOLF CREEK PAS CLOUDY    46  41  81 CALM      30.80F THUNDER
$$

COZ009-010-012-014-032>034-037-058>063-221900-
...CENTRAL COLORADO...

CITY           SKY/WX    TMP DP  RH WIND       PRES   REMARKS
ASPEN          FAIR      75  38  26 N5        30.43F
BUENA VISTA    FAIR      69  41  35 S3        30.49F
COPPER MTN     CLOUDY    64  27  24 S9        30.77F
BERTHOUD PASS  CLOUDY    50  45  81 NE7       30.80F
COTTONWOOD PAS FAIR      68  36  30 E7        30.62F
GUNNISON       FAIR      69  43  38 NE3       30.47F
KREMMLING      FAIR      81  37  21 CALM      30.43F
LEADVILLE      FAIR      64  27  24 S12       30.59F
SALIDA         FAIR      67  44  43 CALM      30.54F
SUNLIGHT       CLOUDY    55  37  50 CALM      30.71S THUNDER
WILKERSON PASS FAIR      59  30  33 SW7       30.76S
$$

COZ069>075-221900-
...SAN LUIS VALLEY/SANGRE DE CRISTO MOUNTAINS...

CITY           SKY/WX    TMP DP  RH WIND       PRES   REMARKS
ALAMOSA        PTSUNNY   69  44  40 CALM      30.47S
DEL NORTE      FAIR      66  43  43 CALM      30.51S
LA VETA PASS   NOT AVBL
SAGUACHE         N/A    N/A N/A N/A MISG        N/A
$$

COZ035-036-038>040-221900-
...NORTHERN COLORADO FRONT RANGE...

CITY           SKY/WX    TMP DP  RH WIND       PRES   REMARKS
DENVER INTL AP PTSUNNY   77  57  50 E10       30.31F
DMNS CITY PARK   N/A     77  50  38 N5        30.31F
AURORA         PTSUNNY   76  54  46 CALM      30.32F
FRONT RANGE AP FAIR      77  59  53 SE12G21   30.33F
ERIE MUNI ARPT FAIR      74  54  49 N5        30.36F
BOULDER MUN AP FAIR      72  55  56 NE3       30.32F
CENTENNIAL     PTSUNNY   77  52  41 VRB3      30.33F
BROOMFIELD     PTSUNNY   73  55  53 NW5       30.34F
FORT COLLINS   CLOUDY    71  58  63 SE8       30.33F
LONGMONT       FAIR      76  56  49 CALM      30.33F
$$

COZ041-046-047-076>085-087-088-221900-
...PIKES PEAK/PALMER DIVIDE AND SOUTHERN FOOTHILLS...

CITY           SKY/WX    TMP DP  RH WIND       PRES   REMARKS
COLO. SPRINGS  PTSUNNY   69  58  67 SE13G20   30.42F
A. F. ACADEMY  CLOUDY    64  57  76 SE10      30.42F
SCHRIEVER AFB  PTSUNNY   65  57  75 S12       30.43S
CHEYENNE MTN   PTSUNNY   63  58  84 SE17G25   30.39F
ELLICOTT       CLOUDY   N/A N/A N/A S8        30.41F
FALCON         CLOUDY    63  56  78 S14G24    30.46F
FORT CARSON    PTSUNNY   70  59  68 SE16      30.39F
LIMON          FAIR      72  56  57 SE14      30.37F
MONUMENT HILL  FAIR      66  55  68 S15G23    30.44F
CANON CITY     MOSUNNY   75  61  60 MISG      30.36F
WALSENBURG     FAIR      73  54  49 CALM      30.41S
TRINIDAD       CLOUDY    70  58  65 NE8       30.40S
$$

COZ042>045-048>051-090-091-221900-
...NORTHEAST COLORADO...

CITY           SKY/WX    TMP DP  RH WIND       PRES   REMARKS
GREELEY ARPT   PTSUNNY   74  59  59 VRB6      30.31F
AKRON          FAIR      73  48  41 SE18      30.33F
BURLINGTON     FAIR      73  56  54 SE9       30.34S
WRAY           NOT AVBL
YUMA           NOT AVBL
STERLING       FAIR      75  50  41 S9        30.29F
HOLYOKE        FAIR      77  54  44 SE7       30.31F
FORT MORGAN    FAIR      76  48  37 SE14G21   30.32F
$$

COZ086-089-092>099-221900-
...SOUTHEAST COLORADO...

CITY           SKY/WX    TMP DP  RH WIND       PRES   REMARKS
PUEBLO         PTSUNNY   76  59  55 VRB3      30.33F
LA JUNTA       CLOUDY    73  60  63 SE8       30.33F
LAMAR          FAIR      76  58  53 E10G20    30.30S
SPRINGFIELD      N/A     72  62  71 NE13      30.32S
$$




USA.gov is the U.S. government's official web portal to all federal, state and local government web resources and services.